Time,TemperatureF,DewpointF,PressureIn,WindDirection,WindDirectionDegrees,WindSpeedMPH,WindSpeedGustMPH,Humidity,HourlyPrecipIn,Conditions,Clouds,dailyrainin,SoftwareType,DateUTC
2013-12-24 00:04:00,52.3,34.3,30.21,North,-999,0.0,0.0,50,0.00,,,-99.99,FreeWX-Wi 1.01,2013-12-24 08:04:00,
2013-12-24 00:14:00,52.2,34.2,30.21,North,-999,0.0,0.0,50,0.00,,,-99.99,FreeWX-Wi 1.01,2013-12-24 08:14:00,
2013-12-24 00:24:00,52.0,34.3,30.21,North,-999,0.0,0.0,51,0.00,,,-99.99,FreeWX-Wi 1.01,2013-12-24 08:24:00,
2013-12-24 00:34:00,51.8,34.3,30.21,North,-999,0.0,0.0,51,0.00,,,-99.99,FreeWX-Wi 1.01,2013-12-24 08:34:00,
2013-12-24 00:44:00,52.2,35.1,30.21,North,-999,0.0,0.0,52,0.00,,,-99.99,FreeWX-Wi 1.01,2013-12-24 08:44:00,
2013-12-24 00:54:00,52.0,34.3,30.21,North,-999,0.0,0.0,51,0.00,,,-99.99,FreeWX-Wi 1.01,2013-12-24 08:54:00,
2013-12-24 01:04:00,51.6,34.5,30.21,North,-999,0.0,0.0,52,0.00,,,-99.99,FreeWX-Wi 1.01,2013-12-24 09:04:00,
2013-12-24 01:14:00,51.6,35.1,30.21,North,-999,0.0,0.0,53,0.00,,,-99.99,FreeWX-Wi 1.01,2013-12-24 09:14:00,
2013-12-24 01:24:00,51.6,34.5,30.21,North,-999,0.0,0.0,52,0.00,,,-99.99,FreeWX-Wi 1.01,2013-12-24 09:24:00,
2013-12-24 01:34:00,51.8,34.7,30.21,North,-999,0.0,0.0,52,0.00,,,-99.99,FreeWX-Wi 1.01,2013-12-24 09:34:00,
2013-12-24 01:44:00,51.8,34.7,30.21,North,-999,0.0,0.0,52,0.00,,,-99.99,FreeWX-Wi 1.01,2013-12-24 09:44:00,
2013-12-24 01:54:00,51.6,35.1,30.21,North,-999,0.0,0.0,53,0.00,,,-99.99,FreeWX-Wi 1.01,2013-12-24 09:54:00,
2013-12-24 02:04:00,51.4,34.9,30.21,North,-999,0.0,0.0,53,0.00,,,-99.99,FreeWX-Wi 1.01,2013-12-24 10:04:00,
2013-12-24 02:14:00,51.3,34.7,30.21,North,-999,0.0,0.0,53,0.00,,,-99.99,FreeWX-Wi 1.01,2013-12-24 10:14:00,
2013-12-24 02:24:00,51.1,34.5,30.21,North,-999,0.0,0.0,53,0.00,,,-99.99,FreeWX-Wi 1.01,2013-12-24 10:24:00,
2013-12-24 02:34:00,50.9,34.9,30.21,North,-999,0.0,0.0,54,0.00,,,-99.99,FreeWX-Wi 1.01,2013-12-24 10:34:00,
2013-12-24 02:44:00,50.9,34.9,30.21,North,-999,0.0,0.0,54,0.00,,,-99.99,FreeWX-Wi 1.01,2013-12-24 10:44:00,
2013-12-24 02:54:00,50.9,35.2,30.21,North,-999,0.0,0.0,55,0.00,,,-99.99,FreeWX-Wi 1.01,2013-12-24 10:54:00,
2013-12-24 03:04:00,50.7,35.1,30.21,North,-999,0.0,0.0,55,0.00,,,-99.99,FreeWX-Wi 1.01,2013-12-24 11:04:00,
2013-12-24 03:14:00,50.5,35.1,30.21,North,-999,0.0,0.0,55,0.00,,,-99.99,FreeWX-Wi 1.01,2013-12-24 11:14:00,
2013-12-24 03:24:00,50.4,34.9,30.21,North,-999,0.0,0.0,55,0.00,,,-99.99,FreeWX-Wi 1.01,2013-12-24 11:24:00,
2013-12-24 03:34:00,50.2,35.1,30.21,North,-999,0.0,0.0,56,0.00,,,-99.99,FreeWX-Wi 1.01,2013-12-24 11:34:00,
2013-12-24 03:44:00,50.2,35.1,30.21,North,-999,0.0,0.0,56,0.00,,,-99.99,FreeWX-Wi 1.01,2013-12-24 11:44:00,
2013-12-24 03:54:00,50.2,35.1,30.21,North,-999,0.0,0.0,56,0.00,,,-99.99,FreeWX-Wi 1.01,2013-12-24 11:54:00,
2013-12-24 04:04:00,50.0,34.9,30.21,North,-999,0.0,0.0,56,0.00,,,-99.99,FreeWX-Wi 1.01,2013-12-24 12:04:00,
2013-12-24 04:14:00,50.0,35.4,30.18,North,-999,0.0,0.0,57,0.00,,,-99.99,FreeWX-Wi 1.01,2013-12-24 12:14:00,
2013-12-24 04:24:00,49.8,35.6,30.18,North,-999,0.0,0.0,58,0.00,,,-99.99,FreeWX-Wi 1.01,2013-12-24 12:24:00,
2013-12-24 04:34:00,49.6,35.4,30.18,North,-999,0.0,0.0,58,0.00,,,-99.99,FreeWX-Wi 1.01,2013-12-24 12:34:00,
2013-12-24 04:44:00,49.5,35.2,30.18,North,-999,0.0,0.0,58,0.00,,,-99.99,FreeWX-Wi 1.01,2013-12-24 12:44:00,
2013-12-24 04:54:00,49.3,35.1,30.18,North,-999,0.0,0.0,58,0.00,,,-99.99,FreeWX-Wi 1.01,2013-12-24 12:54:00,
2013-12-24 05:04:00,49.1,35.4,30.18,North,-999,0.0,0.0,59,0.00,,,-99.99,FreeWX-Wi 1.01,2013-12-24 13:04:00,
2013-12-24 05:14:00,48.9,35.2,30.18,North,-999,0.0,0.0,59,0.00,,,-99.99,FreeWX-Wi 1.01,2013-12-24 13:14:00,
2013-12-24 05:24:00,48.9,35.2,30.18,North,-999,0.0,0.0,59,0.00,,,-99.99,FreeWX-Wi 1.01,2013-12-24 13:24:00,
2013-12-24 05:34:00,48.9,35.6,30.18,North,-999,0.0,0.0,60,0.00,,,-99.99,FreeWX-Wi 1.01,2013-12-24 13:34:00,
2013-12-24 05:44:00,48.7,35.4,30.18,North,-999,0.0,0.0,60,0.00,,,-99.99,FreeWX-Wi 1.01,2013-12-24 13:44:00,
2013-12-24 05:54:00,48.7,35.4,30.18,North,-999,0.0,0.0,60,0.00,,,-99.99,FreeWX-Wi 1.01,2013-12-24 13:54:00,
2013-12-24 06:04:00,48.6,35.2,30.18,North,-999,0.0,0.0,60,0.00,,,-99.99,FreeWX-Wi 1.01,2013-12-24 14:04:00,
2013-12-24 06:14:00,48.6,35.8,30.18,North,-999,0.0,0.0,61,0.00,,,-99.99,FreeWX-Wi 1.01,2013-12-24 14:14:00,
2013-12-24 06:24:00,48.7,36.0,30.18,North,-999,0.0,0.0,61,0.00,,,-99.99,FreeWX-Wi 1.01,2013-12-24 14:24:00,
2013-12-24 06:34:00,48.7,36.0,30.18,North,-999,0.0,0.0,61,0.00,,,-99.99,FreeWX-Wi 1.01,2013-12-24 14:34:00,
2013-12-24 06:44:00,48.6,36.1,30.18,North,-999,0.0,0.0,62,0.00,,,-99.99,FreeWX-Wi 1.01,2013-12-24 14:44:00,
2013-12-24 06:54:00,48.6,36.1,30.18,North,-999,0.0,0.0,62,0.00,,,-99.99,FreeWX-Wi 1.01,2013-12-24 14:54:00,
2013-12-24 07:04:00,48.4,36.0,30.18,North,-999,0.0,0.0,62,0.00,,,-99.99,FreeWX-Wi 1.01,2013-12-24 15:04:00,
2013-12-24 07:14:00,48.4,36.0,30.18,North,-999,0.0,0.0,62,0.00,,,-99.99,FreeWX-Wi 1.01,2013-12-24 15:14:00,
2013-12-24 07:24:00,48.4,36.3,30.18,North,-999,0.0,0.0,63,0.00,,,-99.99,FreeWX-Wi 1.01,2013-12-24 15:24:00,
2013-12-24 07:34:00,48.4,36.3,30.18,North,-999,0.0,0.0,63,0.00,,,-99.99,FreeWX-Wi 1.01,2013-12-24 15:34:00,
2013-12-24 07:44:00,48.2,36.7,30.18,North,-999,0.0,0.0,64,0.00,,,-99.99,FreeWX-Wi 1.01,2013-12-24 15:44:00,
2013-12-24 07:54:00,48.4,36.9,30.18,North,-999,0.0,0.0,64,0.00,,,-99.99,FreeWX-Wi 1.01,2013-12-24 15:54:00,
2013-12-24 08:04:00,48.7,37.6,30.18,North,-999,0.0,0.0,65,0.00,,,-99.99,FreeWX-Wi 1.01,2013-12-24 16:04:00,
2013-12-24 08:14:00,48.7,37.6,30.18,North,-999,0.0,0.0,65,0.00,,,-99.99,FreeWX-Wi 1.01,2013-12-24 16:14:00,
2013-12-24 08:24:00,49.1,38.3,30.18,North,-999,0.0,0.0,66,0.00,,,-99.99,FreeWX-Wi 1.01,2013-12-24 16:24:00,
2013-12-24 08:34:00,49.5,39.0,30.18,North,-999,0.0,0.0,67,0.00,,,-99.99,FreeWX-Wi 1.01,2013-12-24 16:34:00,
2013-12-24 08:44:00,49.6,39.2,30.18,North,-999,0.0,0.0,67,0.00,,,-99.99,FreeWX-Wi 1.01,2013-12-24 16:44:00,
2013-12-24 08:54:00,49.8,39.7,30.18,North,-999,0.0,0.0,68,0.00,,,-99.99,FreeWX-Wi 1.01,2013-12-24 16:54:00,
2013-12-24 09:04:00,50.2,40.5,30.18,North,-999,0.0,0.0,69,0.00,,,-99.99,FreeWX-Wi 1.01,2013-12-24 17:04:00,
2013-12-24 09:14:00,50.5,40.8,30.18,North,-999,0.0,0.0,69,0.00,,,-99.99,FreeWX-Wi 1.01,2013-12-24 17:14:00,
2013-12-24 09:24:00,50.9,41.2,30.18,North,-999,0.0,0.0,69,0.00,,,-99.99,FreeWX-Wi 1.01,2013-12-24 17:24:00,
2013-12-24 09:34:00,51.4,41.9,30.18,North,-999,0.0,0.0,70,0.00,,,-99.99,FreeWX-Wi 1.01,2013-12-24 17:34:00,
2013-12-24 09:44:00,51.8,41.9,30.18,North,-999,0.0,0.0,69,0.00,,,-99.99,FreeWX-Wi 1.01,2013-12-24 17:44:00,
2013-12-24 09:54:00,52.5,43.0,30.18,North,-999,0.0,0.0,70,0.00,,,-99.99,FreeWX-Wi 1.01,2013-12-24 17:54:00,
2013-12-24 10:04:00,52.9,43.0,30.18,North,-999,0.0,0.0,69,0.00,,,-99.99,FreeWX-Wi 1.01,2013-12-24 18:04:00,
2013-12-24 10:14:00,53.2,43.3,30.18,North,-999,0.0,0.0,69,0.00,,,-99.99,FreeWX-Wi 1.01,2013-12-24 18:14:00,
2013-12-24 10:24:00,53.8,43.9,30.18,North,-999,0.0,0.0,69,0.00,,,-99.99,FreeWX-Wi 1.01,2013-12-24 18:24:00,
2013-12-24 10:34:00,54.0,43.3,30.18,North,-999,0.0,0.0,67,0.00,,,-99.99,FreeWX-Wi 1.01,2013-12-24 18:34:00,
2013-12-24 10:44:00,54.3,42.8,30.18,North,-999,0.0,0.0,65,0.00,,,-99.99,FreeWX-Wi 1.01,2013-12-24 18:44:00,
2013-12-24 10:54:00,54.7,42.8,30.18,North,-999,0.0,0.0,64,0.00,,,-99.99,FreeWX-Wi 1.01,2013-12-24 18:54:00,
2013-12-24 11:04:00,55.2,42.4,30.18,North,-999,0.0,0.0,62,0.00,,,-99.99,FreeWX-Wi 1.01,2013-12-24 19:04:00,
2013-12-24 11:14:00,55.8,42.4,30.18,North,-999,0.0,0.0,61,0.00,,,-99.99,FreeWX-Wi 1.01,2013-12-24 19:14:00,
2013-12-24 11:24:00,56.3,42.1,30.15,North,-999,0.0,0.0,59,0.00,,,-99.99,FreeWX-Wi 1.01,2013-12-24 19:24:00,
2013-12-24 11:34:00,57.4,40.8,30.15,North,-999,0.0,0.0,54,0.00,,,-99.99,FreeWX-Wi 1.01,2013-12-24 19:34:00,
2013-12-24 11:44:00,58.1,40.6,30.15,North,-999,0.0,0.0,52,0.00,,,-99.99,FreeWX-Wi 1.01,2013-12-24 19:44:00,
2013-12-24 11:54:00,59.2,40.6,30.15,North,-999,0.0,0.0,50,0.00,,,-99.99,FreeWX-Wi 1.01,2013-12-24 19:54:00,
2013-12-24 12:04:00,60.6,42.4,30.15,North,-999,0.0,0.0,51,0.00,,,-99.99,FreeWX-Wi 1.01,2013-12-24 20:04:00,
2013-12-24 12:14:00,62.1,43.2,30.12,North,-999,0.0,0.0,50,0.00,,,-99.99,FreeWX-Wi 1.01,2013-12-24 20:14:00,
2013-12-24 12:24:00,62.6,42.6,30.12,North,-999,0.0,0.0,48,0.00,,,-99.99,FreeWX-Wi 1.01,2013-12-24 20:24:00,
2013-12-24 12:34:00,62.6,41.5,30.12,North,-999,0.0,0.0,46,0.00,,,-99.99,FreeWX-Wi 1.01,2013-12-24 20:34:00,
2013-12-24 12:44:00,62.6,40.5,30.12,North,-999,0.0,0.0,44,0.00,,,-99.99,FreeWX-Wi 1.01,2013-12-24 20:44:00,
2013-12-24 12:54:00,63.0,40.1,30.12,North,-999,0.0,0.0,43,0.00,,,-99.99,FreeWX-Wi 1.01,2013-12-24 20:54:00,
2013-12-24 13:04:00,62.8,39.4,30.12,North,-999,0.0,0.0,42,0.00,,,-99.99,FreeWX-Wi 1.01,2013-12-24 21:04:00,
2013-12-24 13:14:00,62.6,38.5,30.12,North,-999,0.0,0.0,41,0.00,,,-99.99,FreeWX-Wi 1.01,2013-12-24 21:14:00,
2013-12-24 13:24:00,62.2,38.3,30.09,North,-999,0.0,0.0,41,0.00,,,-99.99,FreeWX-Wi 1.01,2013-12-24 21:24:00,
2013-12-24 13:34:00,62.1,38.7,30.09,North,-999,0.0,0.0,42,0.00,,,-99.99,FreeWX-Wi 1.01,2013-12-24 21:34:00,
2013-12-24 13:44:00,61.9,37.9,30.09,North,-999,0.0,0.0,41,0.00,,,-99.99,FreeWX-Wi 1.01,2013-12-24 21:44:00,
2013-12-24 13:54:00,61.5,37.6,30.09,North,-999,0.0,0.0,41,0.00,,,-99.99,FreeWX-Wi 1.01,2013-12-24 21:54:00,
2013-12-24 14:04:00,61.0,37.8,30.09,North,-999,0.0,0.0,42,0.00,,,-99.99,FreeWX-Wi 1.01,2013-12-24 22:04:00,
2013-12-24 14:14:00,61.0,37.8,30.09,North,-999,0.0,0.0,42,0.00,,,-99.99,FreeWX-Wi 1.01,2013-12-24 22:14:00,
2013-12-24 14:24:00,60.8,37.6,30.09,North,-999,0.0,0.0,42,0.00,,,-99.99,FreeWX-Wi 1.01,2013-12-24 22:24:00,
2013-12-24 14:34:00,60.6,37.4,30.09,North,-999,0.0,0.0,42,0.00,,,-99.99,FreeWX-Wi 1.01,2013-12-24 22:34:00,
2013-12-24 14:44:00,60.3,37.0,30.09,North,-999,0.0,0.0,42,0.00,,,-99.99,FreeWX-Wi 1.01,2013-12-24 22:44:00,
2013-12-24 14:54:00,60.1,37.6,30.09,North,-999,0.0,0.0,43,0.00,,,-99.99,FreeWX-Wi 1.01,2013-12-24 22:54:00,
2013-12-24 15:04:00,60.1,37.6,30.09,North,-999,0.0,0.0,43,0.00,,,-99.99,FreeWX-Wi 1.01,2013-12-24 23:04:00,
2013-12-24 15:14:00,60.6,37.9,30.09,North,-999,0.0,0.0,43,0.00,,,-99.99,FreeWX-Wi 1.01,2013-12-24 23:14:00,
2013-12-24 15:24:00,60.6,37.4,30.09,North,-999,0.0,0.0,42,0.00,,,-99.99,FreeWX-Wi 1.01,2013-12-24 23:24:00,
2013-12-24 15:34:00,60.4,37.2,30.09,North,-999,0.0,0.0,42,0.00,,,-99.99,FreeWX-Wi 1.01,2013-12-24 23:34:00,
2013-12-24 15:44:00,60.1,36.9,30.09,North,-999,0.0,0.0,42,0.00,,,-99.99,FreeWX-Wi 1.01,2013-12-24 23:44:00,
2013-12-24 15:54:00,59.9,36.7,30.09,North,-999,0.0,0.0,42,0.00,,,-99.99,FreeWX-Wi 1.01,2013-12-24 23:54:00,
2013-12-24 16:04:00,59.7,36.5,30.09,North,-999,0.0,0.0,42,0.00,,,-99.99,FreeWX-Wi 1.01,2013-12-25 00:04:00,
2013-12-24 16:14:00,59.9,37.4,30.09,North,-999,0.0,0.0,43,0.00,,,-99.99,FreeWX-Wi 1.01,2013-12-25 00:14:00,
2013-12-24 16:24:00,60.4,36.0,30.09,North,-999,0.0,0.0,40,0.00,,,-99.99,FreeWX-Wi 1.01,2013-12-25 00:24:00,
2013-12-24 16:34:00,60.1,35.1,30.09,North,-999,0.0,0.0,39,0.00,,,-99.99,FreeWX-Wi 1.01,2013-12-25 00:34:00,
2013-12-24 16:44:00,59.7,34.7,30.09,North,-999,0.0,0.0,39,0.00,,,-99.99,FreeWX-Wi 1.01,2013-12-25 00:44:00,
2013-12-24 16:54:00,59.5,34.5,30.09,North,-999,0.0,0.0,39,0.00,,,-99.99,FreeWX-Wi 1.01,2013-12-25 00:54:00,
2013-12-24 17:04:00,59.2,34.2,30.09,North,-999,0.0,0.0,39,0.00,,,-99.99,FreeWX-Wi 1.01,2013-12-25 01:04:00,
2013-12-24 17:14:00,58.6,34.3,30.09,North,-999,0.0,0.0,40,0.00,,,-99.99,FreeWX-Wi 1.01,2013-12-25 01:14:00,
2013-12-24 17:24:00,58.5,34.9,30.06,North,-999,0.0,0.0,41,0.00,,,-99.99,FreeWX-Wi 1.01,2013-12-25 01:24:00,
2013-12-24 17:34:00,58.1,34.5,30.06,North,-999,0.0,0.0,41,0.00,,,-99.99,FreeWX-Wi 1.01,2013-12-25 01:34:00,
2013-12-24 17:44:00,57.9,34.3,30.09,North,-999,0.0,0.0,41,0.00,,,-99.99,FreeWX-Wi 1.01,2013-12-25 01:44:00,
2013-12-24 17:54:00,57.6,34.7,30.06,North,-999,0.0,0.0,42,0.00,,,-99.99,FreeWX-Wi 1.01,2013-12-25 01:54:00,
2013-12-24 18:04:00,57.2,34.3,30.06,North,-999,0.0,0.0,42,0.00,,,-99.99,FreeWX-Wi 1.01,2013-12-25 02:04:00,
2013-12-24 18:14:00,56.8,34.5,30.06,North,-999,0.0,0.0,43,0.00,,,-99.99,FreeWX-Wi 1.01,2013-12-25 02:14:00,
2013-12-24 18:24:00,56.5,34.9,30.06,North,-999,0.0,0.0,44,0.00,,,-99.99,FreeWX-Wi 1.01,2013-12-25 02:24:00,
2013-12-24 18:34:00,56.5,35.4,30.06,North,-999,0.0,0.0,45,0.00,,,-99.99,FreeWX-Wi 1.01,2013-12-25 02:34:00,
2013-12-24 18:44:00,56.3,35.2,30.09,North,-999,0.0,0.0,45,0.00,,,-99.99,FreeWX-Wi 1.01,2013-12-25 02:44:00,
2013-12-24 18:54:00,56.1,35.6,30.06,North,-999,0.0,0.0,46,0.00,,,-99.99,FreeWX-Wi 1.01,2013-12-25 02:54:00,
2013-12-24 19:04:00,55.9,35.4,30.06,North,-999,0.0,0.0,46,0.00,,,-99.99,FreeWX-Wi 1.01,2013-12-25 03:04:00,
2013-12-24 19:14:00,56.7,37.8,30.09,North,-999,0.0,0.0,49,0.00,,,-99.99,FreeWX-Wi 1.01,2013-12-25 03:14:00,
2013-12-24 19:24:00,57.6,39.6,30.09,North,-999,0.0,0.0,51,0.00,,,-99.99,FreeWX-Wi 1.01,2013-12-25 03:24:00,
2013-12-24 19:34:00,57.6,39.6,30.09,North,-999,0.0,0.0,51,0.00,,,-99.99,FreeWX-Wi 1.01,2013-12-25 03:34:00,
2013-12-24 19:44:00,56.7,38.3,30.09,North,-999,0.0,0.0,50,0.00,,,-99.99,FreeWX-Wi 1.01,2013-12-25 03:44:00,
2013-12-24 19:54:00,56.3,37.4,30.09,North,-999,0.0,0.0,49,0.00,,,-99.99,FreeWX-Wi 1.01,2013-12-25 03:54:00,
2013-12-24 20:04:00,55.9,37.0,30.09,North,-999,0.0,0.0,49,0.00,,,-99.99,FreeWX-Wi 1.01,2013-12-25 04:04:00,
2013-12-24 20:14:00,55.6,36.7,30.09,North,-999,0.0,0.0,49,0.00,,,-99.99,FreeWX-Wi 1.01,2013-12-25 04:14:00,
2013-12-24 20:24:00,55.2,36.9,30.09,North,-999,0.0,0.0,50,0.00,,,-99.99,FreeWX-Wi 1.01,2013-12-25 04:24:00,
2013-12-24 20:34:00,54.9,36.5,30.09,North,-999,0.0,0.0,50,0.00,,,-99.99,FreeWX-Wi 1.01,2013-12-25 04:34:00,
2013-12-24 20:44:00,54.5,36.3,30.09,North,-999,0.0,0.0,50,0.00,,,-99.99,FreeWX-Wi 1.01,2013-12-25 04:44:00,
2013-12-24 20:54:00,54.3,36.5,30.09,North,-999,0.0,0.0,51,0.00,,,-99.99,FreeWX-Wi 1.01,2013-12-25 04:54:00,
2013-12-24 21:04:00,54.1,36.5,30.09,North,-999,0.0,0.0,51,0.00,,,-99.99,FreeWX-Wi 1.01,2013-12-25 05:04:00,
2013-12-24 21:14:00,54.0,36.3,30.09,North,-999,0.0,0.0,51,0.00,,,-99.99,FreeWX-Wi 1.01,2013-12-25 05:14:00,
2013-12-24 21:24:00,53.6,36.3,30.09,North,-999,0.0,0.0,52,0.00,,,-99.99,FreeWX-Wi 1.01,2013-12-25 05:24:00,
2013-12-24 21:34:00,53.4,36.3,30.09,North,-999,0.0,0.0,52,0.00,,,-99.99,FreeWX-Wi 1.01,2013-12-25 05:34:00,
2013-12-24 21:44:00,53.4,36.7,30.09,North,-999,0.0,0.0,53,0.00,,,-99.99,FreeWX-Wi 1.01,2013-12-25 05:44:00,
2013-12-24 21:54:00,53.2,36.5,30.12,North,-999,0.0,0.0,53,0.00,,,-99.99,FreeWX-Wi 1.01,2013-12-25 05:54:00,
2013-12-24 22:04:00,53.1,36.9,30.12,North,-999,0.0,0.0,54,0.00,,,-99.99,FreeWX-Wi 1.01,2013-12-25 06:04:00,
2013-12-24 22:14:00,52.9,36.7,30.12,North,-999,0.0,0.0,54,0.00,,,-99.99,FreeWX-Wi 1.01,2013-12-25 06:14:00,
2013-12-24 22:24:00,52.7,36.5,30.12,North,-999,0.0,0.0,54,0.00,,,-99.99,FreeWX-Wi 1.01,2013-12-25 06:24:00,
2013-12-24 22:34:00,52.7,36.5,30.12,North,-999,0.0,0.0,54,0.00,,,-99.99,FreeWX-Wi 1.01,2013-12-25 06:34:00,
2013-12-24 22:44:00,52.3,36.7,30.12,North,-999,0.0,0.0,55,0.00,,,-99.99,FreeWX-Wi 1.01,2013-12-25 06:44:00,
2013-12-24 22:54:00,52.2,36.5,30.12,North,-999,0.0,0.0,55,0.00,,,-99.99,FreeWX-Wi 1.01,2013-12-25 06:54:00,
2013-12-24 23:04:00,52.2,36.5,30.12,North,-999,0.0,0.0,55,0.00,,,-99.99,FreeWX-Wi 1.01,2013-12-25 07:04:00,
2013-12-24 23:14:00,52.0,36.3,30.12,North,-999,0.0,0.0,55,0.00,,,-99.99,FreeWX-Wi 1.01,2013-12-25 07:14:00,
2013-12-24 23:24:00,51.8,36.1,30.12,North,-999,0.0,0.0,55,0.00,,,-99.99,FreeWX-Wi 1.01,2013-12-25 07:24:00,
2013-12-24 23:34:00,51.8,36.7,30.12,North,-999,0.0,0.0,56,0.00,,,-99.99,FreeWX-Wi 1.01,2013-12-25 07:34:00,
2013-12-24 23:44:00,51.6,36.9,30.12,North,-999,0.0,0.0,57,0.00,,,-99.99,FreeWX-Wi 1.01,2013-12-25 07:44:00,
2013-12-24 23:54:00,51.4,36.7,30.12,North,-999,0.0,0.0,57,0.00,,,-99.99,FreeWX-Wi 1.01,2013-12-25 07:54:00,